Coffman Cove, AK

7:22 PM AKDT on September 25, 2016 (GMT -0800)
Ketchikan International

Weather History for PAKT - March, 2013

Change the Weather History Date:

Saturday, March 9, 2013

  Actual Average Record
Temperature  
Mean Temperature 38 °F -  
Max Temperature 41 °F 43 °F 57 °F (1965)
Min Temperature 35 °F 32 °F 6 °F (2002)
Degree Days  
Heating Degree Days 27    
Moisture  
Dew Point 37 °F    
Average Humidity 93    
Maximum Humidity 100    
Minimum Humidity 67    
Precipitation  
Precipitation 1.10 in - - ()
Sea Level Pressure  
Sea Level Pressure 30.18 in    
Wind  
Wind Speed 8 mph (SSE)    
Max Wind Speed 21 mph    
Max Gust Speed 30 mph    
Visibility 9 miles    
Events Rain    
Averages and records for this station are not official NWS values.
T = Trace of Precipitation, MM = Missing Value Source: NWS Daily Summary

Daily Weather History Graph

Daily Weather History Graph

Search for Another Location

Airport or City:

Trip Planner

Search our weather history database for the weather conditions in past years. The results will help you decide how hot, cold, wet, or windy it might be!

Date:

Astronomy

Mar. 09, 2013 Rise Set
Actual Time 6:16 AM AKST 5:39 PM AKST
Civil Twilight 5:39 AM AKST 6:15 PM AKST
Nautical Twilight 4:57 AM AKST 6:58 PM AKST
Astronomical Twilight 4:13 AM AKST 7:42 PM AKST
Moon 5:01 AM AKST (3/9) 3:37 PM AKST (3/9)
Length of Visible Light 12h 36m
Length of Day
11h 23m
Waning Crescent, 5% of the Moon is Illuminated
Mar 9
Waning Crescent
Mar 11
New
Mar 19
First Quarter
Mar 27
Full
Apr 2
Last Quarter

Hourly Weather History & Observations

Time (AKST) Temp. Windchill Dew Point Humidity Pressure Visibility Wind Dir Wind Speed Gust Speed Precip Events Conditions
12:53 AM 39.0 °F 34.8 °F 39.0 °F 100% 30.19 in 10.0 mi SSE 5.8 mph - 0.00 in Rain Light Rain
1:34 AM 39.2 °F 35.0 °F 37.4 °F 93% 30.19 in 10.0 mi South 5.8 mph - 0.01 in Rain Light Rain
1:50 AM 39.2 °F 35.9 °F 39.2 °F 100% 30.19 in 9.0 mi South 4.6 mph - 0.02 in Rain Light Rain
1:53 AM 39.0 °F 35.7 °F 39.0 °F 100% 30.19 in 9.0 mi South 4.6 mph - 0.02 in Rain Light Rain
3:53 AM 39.0 °F 34.8 °F 37.9 °F 96% 30.18 in 9.0 mi South 5.8 mph - 0.02 in Rain Light Rain
4:53 AM 37.9 °F 33.5 °F 37.9 °F 100% 30.17 in 10.0 mi SSE 5.8 mph - 0.02 in   Overcast
5:53 AM 39.0 °F 34.0 °F 37.9 °F 96% 30.15 in 10.0 mi SSE 6.9 mph - 0.01 in   Overcast
5:58 AM 39.2 °F 34.2 °F 37.4 °F 93% 30.14 in 10.0 mi SSE 6.9 mph - N/A   Overcast
6:53 AM 39.0 °F 32.8 °F 39.0 °F 100% 30.14 in 10.0 mi SSE 9.2 mph - 0.00 in Rain Light Rain
7:53 AM 39.0 °F 31.0 °F 37.9 °F 96% 30.14 in 10.0 mi SE 13.8 mph 19.6 mph 0.02 in Rain Light Rain
8:53 AM 39.0 °F 31.0 °F 39.0 °F 100% 30.13 in 6.0 mi SE 13.8 mph - 0.05 in Rain Light Rain
9:53 AM 39.0 °F 30.3 °F 39.0 °F 100% 30.13 in 5.0 mi SE 16.1 mph 21.9 mph 0.10 in Rain Rain
10:53 AM 39.0 °F 29.6 °F 39.0 °F 100% 30.11 in 5.0 mi SE 18.4 mph - 0.13 in Rain Light Rain
11:53 AM 39.0 °F 29.6 °F 37.9 °F 96% 30.11 in 5.0 mi SE 18.4 mph 25.3 mph 0.16 in Rain Rain
12:53 PM 37.9 °F 28.5 °F 37.9 °F 100% 30.09 in 5.0 mi SE 17.3 mph 24.2 mph 0.21 in Rain Rain
1:53 PM 37.9 °F 27.6 °F 37.9 °F 100% 30.06 in 4.0 mi SE 20.7 mph 25.3 mph 0.25 in Rain Rain
2:53 PM 41.0 °F 32.2 °F 41.0 °F 100% 30.05 in 10.0 mi SE 18.4 mph 29.9 mph 0.11 in Rain Light Rain
3:53 PM 41.0 °F 34.3 °F 36.0 °F 82% 30.11 in 10.0 mi SSE 11.5 mph - 0.00 in Rain Light Rain
3:55 PM 41.0 °F 32.8 °F 35.6 °F 81% 30.11 in 10.0 mi SE 16.1 mph 23.0 mph 0.00 in Rain Light Rain
4:53 PM 41.0 °F 34.3 °F 35.1 °F 79% 30.15 in 10.0 mi SE 11.5 mph - 0.00 in   Overcast
5:53 PM 41.0 °F - 30.9 °F 67% 30.21 in 10.0 mi Calm Calm - N/A   Mostly Cloudy
6:53 PM 39.0 °F 35.7 °F 34.0 °F 82% 30.25 in 10.0 mi South 4.6 mph - N/A   Overcast
7:53 PM 37.0 °F - 33.1 °F 86% 30.28 in 10.0 mi Calm Calm - 0.00 in   Scattered Clouds
8:53 PM 37.9 °F - 30.9 °F 76% 30.31 in 10.0 mi Calm Calm - N/A   Scattered Clouds
9:53 PM 37.0 °F - 33.1 °F 86% 30.33 in 10.0 mi Calm Calm - 0.00 in   Overcast
10:48 PM 35.6 °F - 33.8 °F 93% 30.34 in 10.0 mi Calm Calm - 0.00 in   Mostly Cloudy
10:53 PM 35.1 °F 32.2 °F 34.0 °F 96% 30.35 in 10.0 mi South 3.5 mph - 0.00 in   Scattered Clouds
11:53 PM 35.1 °F 31.0 °F 34.0 °F 96% 30.37 in 10.0 mi South 4.6 mph - N/A   Partly Cloudy